Zurück zum Katalog

STARLINK-32472

AktivKommunikationVLEO
NORAD 61846·PAYLOAD·🇺🇸 United States

Gestartet Nov 7, 2024 von Cape Canaveral Space Force Station

Loading…

Nächste Überflüge (nächste 24 Stunden)

TLE

AktuellSource: CelesTrak SupGP

Epoche: Sep 15, 2026, 01:58 UTC

1 61846C 24202B   26258.08243056 -.00031775  00000+0 -11508-2 0  2585
2 61846  43.0025 237.6971 0001214 267.2869 196.7930 15.27597725    10

Verfolge STARLINK-32472 in Echtzeit mit AllMySat

Download on the App Store